Martha's Vineyard, MA

2:35 AM EDT on March 28, 2017 (GMT -0400)
Martha's Vineyard

Weather History for KMVY - June, 2014

Change the Weather History Date:

Thursday, June 5, 2014

  Actual Average Record
Temperature  
Mean Temperature 62 °F -  
Max Temperature 64 °F 68 °F 80 °F (2005)
Min Temperature 59 °F 52 °F 35 °F (2011)
Degree Days  
Heating Degree Days 4    
Growing Degree Days 12 (Base 50)    
Moisture  
Dew Point 58 °F    
Average Humidity 90    
Maximum Humidity 94    
Minimum Humidity 86    
Precipitation  
Precipitation 0.36 in - - ()
Sea Level Pressure  
Sea Level Pressure 29.70 in    
Wind  
Wind Speed 5 mph (NNE)    
Max Wind Speed 20 mph    
Max Gust Speed 24 mph    
Visibility 5 miles    
Events Fog , Rain    
Averages and records for this station are not official NWS values.
T = Trace of Precipitation, MM = Missing Value Source: NWS Daily Summary

Daily Weather History Graph

Daily Weather History Graph

Search for Another Location

Airport or City:

Trip Planner

Search our weather history database for the weather conditions in past years. The results will help you decide how hot, cold, wet, or windy it might be!

Date:

Astronomy

Jun. 05, 2014 Rise Set
Actual Time 5:09 AM EDT 8:12 PM EDT
Civil Twilight 4:36 AM EDT 8:45 PM EDT
Nautical Twilight 3:53 AM EDT 9:28 PM EDT
Astronomical Twilight 3:03 AM EDT 10:18 PM EDT
Moon 12:26 PM EDT (6/5) 12:35 AM EDT (6/5)
Length of Visible Light 16h 09m
Length of Day
15h 02m
Waxing Crescent, 48% of the Moon is Illuminated
Jun 5
Waxing Crescent
Jun 5
First Quarter
Jun 13
Full
Jun 19
Last Quarter
Jun 27
New

Hourly Weather History & Observations

Time (EDT) Temp. Dew Point Humidity Pressure Visibility Wind Dir Wind Speed Gust Speed Precip Events Conditions
12:25 AM 60.1 °F 55.9 °F 86% 29.78 in 10.0 mi SW 3.5 mph - N/A   Overcast
12:40 AM 60.1 °F 57.0 °F 90% 29.79 in 10.0 mi Calm Calm - N/A   Overcast
12:53 AM 61.0 °F 57.0 °F 87% 29.78 in 10.0 mi Calm Calm - N/A   Overcast
1:27 AM 61.0 °F 57.0 °F 87% 29.78 in 10.0 mi NNE 3.5 mph - N/A   Overcast
1:53 AM 61.0 °F 57.0 °F 87% 29.78 in 10.0 mi Calm Calm - N/A   Overcast
2:09 AM 61.0 °F 57.9 °F 90% 29.77 in 2.5 mi Calm Calm - N/A   Overcast
2:24 AM 61.0 °F 57.9 °F 90% 29.76 in 1.2 mi Calm Calm - N/A   Overcast
2:36 AM 61.0 °F 57.9 °F 90% 29.77 in 0.5 mi Calm Calm - N/A Fog Fog
2:53 AM 60.1 °F 57.9 °F 93% 29.76 in 0.5 mi Calm Calm - N/A Fog Fog
3:38 AM 61.0 °F 57.9 °F 90% 29.76 in 1.5 mi Calm Calm - 0.01 in Rain Light Rain
3:48 AM 60.8 °F 59.0 °F 94% 29.75 in 2.0 mi NNE 3.5 mph - 0.01 in Rain Light Rain
3:53 AM 61.0 °F 57.9 °F 90% 29.75 in 2.5 mi Calm Calm - 0.02 in Rain Light Rain
4:02 AM 61.0 °F 57.9 °F 90% 29.75 in 4.0 mi NNE 4.6 mph - 0.00 in Rain Light Rain
4:29 AM 62.1 °F 60.1 °F 93% 29.74 in 6.0 mi ESE 4.6 mph - 0.00 in Rain Light Rain
4:53 AM 62.1 °F 59.0 °F 90% 29.75 in 5.0 mi ESE 4.6 mph - 0.00 in Rain Light Rain
5:22 AM 62.1 °F 60.1 °F 93% 29.75 in 1.8 mi Calm Calm - 0.01 in Rain Light Rain
5:34 AM 62.1 °F 60.1 °F 93% 29.75 in 0.5 mi Calm Calm - 0.01 in Fog , Rain Light Rain
5:53 AM 62.1 °F 59.0 °F 90% 29.75 in 0.2 mi SSE 5.8 mph - 0.01 in Fog Fog
6:18 AM 61.0 °F 59.0 °F 93% 29.74 in 0.5 mi SE 5.8 mph - N/A Fog Fog
6:36 AM 61.0 °F 59.0 °F 93% 29.74 in 0.2 mi ESE 3.5 mph - 0.00 in Fog , Rain Light Rain
6:43 AM 61.0 °F 59.0 °F 93% 29.73 in 0.2 mi East 4.6 mph - 0.00 in Fog Fog
6:53 AM 61.0 °F 59.0 °F 93% 29.73 in 0.2 mi NE 5.8 mph - 0.00 in Fog , Rain Light Rain
7:02 AM 61.0 °F 59.0 °F 93% 29.72 in 0.5 mi NE 5.8 mph - 0.00 in Fog , Rain Light Rain
7:29 AM - - N/A% 29.73 in 1.2 mi ESE 5.8 mph - 0.00 in Rain Light Rain
7:53 AM - - N/A% 29.72 in 1.0 mi NE 5.8 mph - 0.01 in Rain Light Rain
8:53 AM - - N/A% 29.71 in 1.0 mi East 5.8 mph - 0.00 in   Overcast
9:14 AM - - N/A% 29.71 in 0.5 mi ENE 6.9 mph - 0.00 in Rain Light Rain
9:37 AM - - N/A% 29.71 in 1.0 mi ENE 5.8 mph - 0.02 in Rain Light Rain
9:53 AM - - N/A% 29.70 in 1.0 mi East 6.9 mph - 0.04 in Rain Light Rain
11:39 AM 64.0 °F 62.1 °F 93% 29.64 in 4.0 mi East 11.5 mph - 0.11 in Rain Light Rain
11:53 AM 64.0 °F 61.0 °F 90% 29.63 in 8.0 mi East 9.2 mph - 0.12 in Rain Light Rain
12:01 PM 64.0 °F 62.1 °F 93% 29.63 in 3.0 mi NE 8.1 mph - 0.00 in Rain Light Rain
12:53 PM 63.0 °F 61.0 °F 93% 29.61 in 3.0 mi NE 6.9 mph - 0.02 in Rain Light Rain
1:43 PM 64.9 °F 62.1 °F 90% 29.58 in 4.0 mi NNE 12.7 mph - 0.10 in Rain Light Rain
1:53 PM 62.1 °F 60.1 °F 93% 29.57 in 8.0 mi North 17.3 mph 23.0 mph 0.10 in Rain Light Rain
2:53 PM 61.0 °F 57.9 °F 90% 29.57 in 8.0 mi NNE 16.1 mph - 0.00 in Rain Light Rain
3:53 PM 61.0 °F 57.9 °F 90% 29.58 in 9.0 mi North 19.6 mph - 0.01 in   Overcast
4:53 PM 61.0 °F 57.9 °F 90% 29.60 in 5.0 mi NW 13.8 mph 23.0 mph 0.02 in Rain Light Rain
5:28 PM 61.0 °F 57.0 °F 87% 29.60 in 10.0 mi North 16.1 mph 24.2 mph 0.01 in   Overcast
5:46 PM 61.0 °F 57.0 °F 87% 29.59 in 10.0 mi North 12.7 mph 21.9 mph 0.01 in   Overcast
5:53 PM 61.0 °F 57.0 °F 87% 29.60 in 10.0 mi North 15.0 mph 23.0 mph 0.01 in   Overcast
6:33 PM 60.1 °F 55.9 °F 86% 29.60 in 10.0 mi North 15.0 mph 21.9 mph N/A   Overcast
6:41 PM 60.1 °F 57.0 °F 90% 29.60 in 10.0 mi North 11.5 mph - N/A   Overcast
6:53 PM 61.0 °F 57.0 °F 87% 29.62 in 10.0 mi North 10.4 mph - N/A   Overcast
7:53 PM 60.1 °F 57.0 °F 90% 29.65 in 10.0 mi NNW 18.4 mph - N/A   Overcast
8:53 PM 60.1 °F 55.9 °F 86% 29.67 in 10.0 mi NNW 11.5 mph - N/A   Overcast
9:30 PM 59.0 °F 55.9 °F 90% 29.69 in 10.0 mi NW 10.4 mph - N/A   Overcast
9:43 PM 59.0 °F 55.9 °F 90% 29.70 in 10.0 mi NNW 9.2 mph - N/A   Overcast
9:47 PM 59.0 °F 55.4 °F 88% 29.70 in 10.0 mi NNW 10.4 mph - N/A   Overcast
9:53 PM 59.0 °F 55.9 °F 90% 29.70 in 10.0 mi NW 10.4 mph - N/A   Overcast
10:00 PM 60.1 °F 55.9 °F 86% 29.70 in 10.0 mi NW 8.1 mph - N/A   Overcast
10:53 PM 60.1 °F 55.9 °F 86% 29.71 in 10.0 mi NNW 10.4 mph - N/A   Overcast
11:53 PM 59.0 °F 55.0 °F 87% 29.74 in 10.0 mi NW 5.8 mph - N/A   Mostly Cloudy